Notices

What's New in latest Release from April 7th, 2021:

- Updated Glossary, including Speed of Maximum Gust, and Total Hourly Precipitation

- Updated national and regional climate services offices contacts and prices information

- Addition of station inventory lists for 1981-2010, 1971-2000, and 1961-1990 Normals.

If you haven't already, please take our survey and provide feedback about our website: https://eccc.sondage-survey.ca/f/LanguageSelection.aspx?s=442ca660-fcf1-47c0-95a9-59707d6fd709

Hourly Data Report for April 16, 2012

MIRAMICHI RCS
NEW BRUNSWICK

47°00'34.000" N
65°27'54.000" W
33.00 m
8100989
71744
ACQ

Download Data

Hourly Data (April 2012)
Hourly Data Report for April 16, 2012
TIME
LST
Temp Definition
°C
Dew Point Definition
°C
Rel Hum Definition
%
Precip. Amount Definition
mm

Wind Dir Definition
10's deg

Wind Spd Definition
km/h
Visibility Definition
km
Stn Press Definition
kPa
Hmdx Definition


Wind Chill Definition


Weather Definition


00:00 11.7 2.4 53   23 11   101.07     LegendNANA
01:00 10.6 3.8 63   22 15   101.12     LegendNANA
02:00 9.6 4.6 71   22 17   101.13     LegendNANA
03:00 8.4 4.9 79   22 15   101.09     LegendNANA
04:00 7.9 5.1 82   22 17   101.09     LegendNANA
05:00 6.8 4.8 87   23 9   101.15     LegendNANA
06:00 6.0 4.4 89   22 7   101.26     LegendNANA
07:00 7.0 5.4 90   21 17   101.31     LegendNANA
08:00 9.9 6.8 81   21 19   101.32     LegendNANA
09:00 12.6 7.7 72   22 19   101.28     LegendNANA
10:00 16.1 8.7 61   23 17   101.25     LegendNANA
11:00 18.1 9.2 56   21 26   101.20     LegendNANA
12:00 20.1 9.2 49   21 20   101.12     LegendNANA
13:00 22.3 9.0 43   20 28   101.02     LegendNANA
14:00 23.9 9.6 40   20 33   100.96 25   LegendNANA
15:00 24.4 10.4 41   22 35   100.90 26   LegendNANA
16:00 23.3 10.6 45   20 37   100.87 25   LegendNANA
17:00 22.4 10.7 47   21 41   100.85     LegendNANA
18:00 21.0 10.8 52   22 32   100.89     LegendNANA
19:00 19.2 10.7 58   21 33   100.92     LegendNANA
20:00 17.9 10.8 63   20 28   100.92     LegendNANA
21:00 16.6 10.7 68   21 24   100.90     LegendNANA
22:00 15.8 10.9 73   21 26   100.86     LegendNANA
23:00 15.0 10.8 76   22 30   100.85     LegendNANA

Notes on Data Quality.

Legend

  • E = Estimated
  • M = Missing
  • NA = Not Available*
  • [empty] = Indicates an unobserved value
Date modified: